CZ-4B DEB, 25733

Orbit data source: Space-Track

CZ-4B DEB, 25733 is space debris in SSO originally from a launch on Mon, 10 May 1999 UTC launched from the Taiyaun Space Center, China (TSC). Debris objects in space refer to the collection of defunct objects orbiting the Earth. Examples of debris include non-operational satellites, rocket bodies, and fragments generated from explosions, collisions, or faulty payload assembly.

Loading next visibility...
Identifier
25733, 1999-025D
Orbit
SSO
Country
Flag of CNCN / PRC
Related business
Manufacturer
Unknown
Mission
Spacecraft
Bus & Motor
Unknown
Mass
~50 kg wet, ~50 kg dry
Launch date (UTC)
1999-05-10 (27 years ago)
Launch vehicle
Unknown
Launch site
Taiyaun Space Center, China (TSC)
Object type
Payload
Rocket body
Debris
Shape & HBR
Cone, 1.5 m
Radar Cross Section
3.657 m², Large (>1 m²)

Expand to show TLE details & history
Last TLE update: 13 hours ago

TLE from 13 hours ago
0 CZ-4B DEB
1 25733U 99025D   26253.53139235  .00000246  00000-0  13874-3 0  9992
2 25733  98.6754 295.2409 0013137 295.2250  64.7564 14.18997395412120
Epoch: 2026-09-10T12:45Z
TLE epoch observation values (Epoch: 2026-09-10T12:45:12.299Z)
Latitude
0.00002°
Longitude
114.37189°
Altitude
827.631 km
Speed
7.441 km/s
True Right ascension
19h 40m 57s
True Declination
0° 00' 00"
Sunlit
Object was in full shadow at epoch
Visualization orbit readout
Latitude
Unknown
Longitude
Unknown
Altitude
Unknown
Speed
Unknown
Apparent Right ascension
Unknown
Apparent Declination
Unknown
Sunlit
N/A
Visualization observer readout
Local Sidereal Time
17:45:11
Azimuth
Unknown
Elevation
Unknown
Doppler factor
Unknown
Orbital elements
Apogee altitude
835.368 km
Perigee altitude
816.44 km
Semi-major axis
7,204.041 km
Eccentricity
0.00131
Inclination
98.6754°
RAAN
295.2409°
Arg. of periapsis
295.225°
True anomaly
64.89266°
Mean anomaly
64.7564°
Eccentric anomaly
64.82452°
Mean motion
3.5496 °/min
Orbital period
101.42 mins
BSTAR
0.00013874
Loading maneuver chart data...
Computing Atmospheric mass density...

Documentation

Showing up to 5 results
|